Location: Estes Par
(40.3770°N, 105.5210°W)
Time: 19:33:47
(UTC-06:00)

Tiangong 1 - Pass Details

Date: 16 October 2017
Orbit: 293 x 320 km, 42.8° (Epoch: 19 October)

Event Time Altitude Azimuth Distance (km) Brightness Sun altitude
Rises 19:55:48 0° 275° (W) 2,031 6.4 -19.0°
Reaches altitude 10° 19:58:24 10° 248° (WSW) 1,193 4.5 -19.5°
Maximum altitude 19:59:52 14° 214° (SW) 1,004 3.5 -19.8°
Enters shadow 20:00:26 13° 200° (SSW) 1,031 3.4 -19.9°
